Regional Weather Roundup
Issued by NWS

Home | Current Version | Previous Version | Text Only | Print | Product List | Glossary On
Versions: 1 2 3 4 5 6 7 8 9 10 11 12 13 14 15 16 17 18 19 20 21 22 23 24 25 26 27 28 29 30 31 32 33 34 35 36 37 38 39 40 41 42 43 44 45 46 47 48 49 50
000
ASUS43 KDMX 031408
RWRIA

WEATHER ROUNDUP FOR IOWA
NATIONAL WEATHER SERVICE DES MOINES IA
900 AM CDT TUE MAY 03 2016

NOTE: "FAIR" INDICATES FEW OR NO CLOUDS BELOW 12,000 FEET WITH NO
SIGNIFICANT WEATHER AND/OR OBSTRUCTIONS TO VISIBILITY.

* - THESE STATIONS ARE NOT NWS STATIONS...THUS NOT UNDER NWS
QUALITY CONTROL.  THEY ALSO DO NOT REPORT WEATHER SUCH
AS PRECIPITATION OR FOG.

IAZ001>003-012>014-020>022-031>034-043>046-031500-
   NORTHWEST IOWA

CITY           SKY/WX    TMP DP  RH WIND       PRES   REMARKS
CARROLL *      SUNNY     57  46  67 W8        30.04S
CHEROKEE *     SUNNY     48  48 100 CALM      30.03F
DENISON *      SUNNY     52  43  71 SW6       30.03F
LE MARS *      SUNNY     54  46  76 CALM      30.04S
ORANGE CITY *  SUNNY     52  46  82 NW7       30.03S
SHELDON *      SUNNY     52  43  71 W8        30.01S
SIOUX CITY     SUNNY     54  44  69 W6        30.05S
SPENCER        SUNNY     52  42  69 W5        30.02S
STORM LAKE *   SUNNY     54  43  66 W10       30.03F
$$

IAZ055>058-069>071-079>083-090>094-031500-
   SOUTHWEST IOWA

CITY           SKY/WX    TMP DP  RH WIND       PRES   REMARKS
ATLANTIC *     SUNNY     52  46  82 SW3       30.06S
AUDUBON *      SUNNY     55  46  71 CALM      30.06S
CLARINDA *       N/A    N/A N/A N/A MISG        N/A
COUNCIL BLFS * SUNNY     55  43  62 W5        30.07S
CRESTON *      SUNNY     55  46  71 W10       30.07S
HARLAN  *      SUNNY     52  48  87 CALM      30.10R
LAMONI         SUNNY     56  47  71 W6        30.06S
SHENANDOAH *   SUNNY     54  48  82 SW5       30.09R
$$

IAZ047>049-059>061-072>074-084-031500-
   CENTRAL IOWA

CITY           SKY/WX    TMP DP  RH WIND       PRES   REMARKS
AMES           SUNNY     55  46  71 W8        30.03S
ANKENY *       SUNNY     55  46  71 W6        30.04S
BOONE *        SUNNY     54  43  66 W9        30.03S
CHARITON *     SUNNY     55  46  71 W7        30.05S
DES MOINES     MOSUNNY   57  45  64 W5        30.05S
GRINNELL*      SUNNY     55  45  67 W8        30.04S
KNOXVILLE *    SUNNY     54  45  71 W7        30.03S
MARSHALLTOWN   SUNNY     55  46  71 W6        30.02F
NEWTON *       SUNNY     54  48  82 W8        30.03F
PELLA *        SUNNY     55  45  67 W6        30.06R
$$

IAZ004>006-015-016-023>025-035-036-031500-
   NORTH CENTRAL IOWA

CITY           SKY/WX    TMP DP  RH WIND       PRES   REMARKS
ALGONA *       SUNNY     55  43  62 W9        30.01S
CLARION *      SUNNY     55  45  67 W8        30.02S
ESTHERVILLE    SUNNY     56  44  64 W9        30.00S
FORT DODGE *   SUNNY     54  43  66 SW5       30.03S
MASON CITY     SUNNY     55  44  66 W12       30.01S
FOREST CITY *  SUNNY     54  43  66 W8        30.00S
WEBSTER CITY * MOSUNNY   55  46  71 W10       30.01S
IOWA FALLS *     N/A     55  46  71 W9        30.03S
$$

IAZ007>011-017>019-026>030-037>042-050>054-066-031500-
   NORTHEAST IOWA

CITY           SKY/WX    TMP DP  RH WIND       PRES   REMARKS
CEDAR RAPIDS   SUNNY     55  47  74 W10       30.01S
CHARLES CITY * SUNNY     55  45  67 W10       30.00S
DECORAH *      SUNNY     55  43  62 W7        29.97F
DUBUQUE        SUNNY     56  44  64 NW12      30.00S
MONTICELLO *   SUNNY     55  46  71 W9        30.01R
OELWEIN *      SUNNY     55  46  71 W12       30.00F
WATERLOO       SUNNY     56  43  61 W10       30.00F
$$

IAZ064-065-067-068-078-031500-
   EAST CENTRAL IOWA

CITY           SKY/WX    TMP DP  RH WIND       PRES   REMARKS
DAVENPORT      SUNNY     54  46  74 W9        30.02S
IOWA CITY      SUNNY     55  45  68 W12       30.03F
MT. PLEASANT * SUNNY     57  46  67 W8        30.04S
MUSCATINE *    SUNNY     55  46  71 NW7       30.03S
QUAD CITIES    SUNNY     56  45  66 W6        30.01S
$$

IAZ062-063-075>077-085>089-095>099-031500-
   SOUTHEAST IOWA

CITY           SKY/WX    TMP DP  RH WIND       PRES   REMARKS
BURLINGTON     SUNNY     56  46  69 NW9       30.03S
FAIRFIELD *    SUNNY     54  46  76 W9        30.04S
FORT MADISON * SUNNY     55  46  71 NW6       30.04S
KEOKUK *       SUNNY     57  45  62 NW5       30.04S
OSKALOOSA *      N/A     52  46  82 W7        30.05S
OTTUMWA        SUNNY     52  46  80 W8        30.04F
WASHINGTON *   SUNNY     55  50  82 NW12      30.04F
$$

ABBREVIATIONS USED IN REMARKS
   TC - TEMPERATURES IN CELSIUS
  WCI - WIND CHILL INDEX
   HX - HEAT INDEX
  VSB - VISIBILITY
$$




USA.gov is the U.S. government's official web portal to all federal, state and local government web resources and services.